NOAA 16 DEB, 41430

Orbit data source: Space-Track

NOAA 16 DEB, 41430 is space debris in SSO originally from a launch on Thu, 21 Sep 2000 UTC launched from the Air Force Western Test Range (AFWTR). Debris objects in space refer to the collection of defunct objects orbiting the Earth. Examples of debris include non-operational satellites, rocket bodies, and fragments generated from explosions, collisions, or faulty payload assembly.

Loading next visibility...
Identifier
41430, 2000-055LK
Orbit
SSO
Country
Flag of USUS
Related business
Manufacturer
Unknown
Mission
Spacecraft
Bus & Motor
Unknown
Mass
Unknown
Launch date (UTC)
2000-09-21 (26 years ago)
Launch vehicle
Unknown
Launch site
Air Force Western Test Range (AFWTR)
Object type
Payload
Rocket body
Debris
Shape & HBR
Unknown shape, 0.1 m
Radar Cross Section
Medium (>0.1 m² and <1 m²)

Expand to show TLE details & history
Last TLE update: 2 days ago

TLE from 2 days ago
0 NOAA 16 DEB
1 41430U 00055LK  26171.06353085  .00004627  00000-0  11777-2 0  9993
2 41430  98.9991  28.9686 0032743 127.7567 232.6599 14.50855557542565
Epoch: 2026-06-20T01:31Z
TLE epoch observation values (Epoch: 2026-06-20T01:31:29.065Z)
Latitude
-0.0001°
Longitude
97.81398°
Altitude
739.956 km
Speed
7.477 km/s
True Right ascension
01h 55m 52s
True Declination
0° 00' 00"
Sunlit
Object was in daylight at epoch
Visualization orbit readout
Latitude
Unknown
Longitude
Unknown
Altitude
Unknown
Speed
Unknown
Apparent Right ascension
Unknown
Apparent Declination
Unknown
Sunlit
N/A
Visualization observer readout
Local Sidereal Time
21:40:35
Azimuth
Unknown
Elevation
Unknown
Doppler factor
Unknown
Orbital elements
Apogee altitude
743.229 km
Perigee altitude
696.746 km
Semi-major axis
7,098.124 km
Eccentricity
0.00327
Inclination
98.9991°
RAAN
28.9686°
Arg. of periapsis
127.7567°
True anomaly
232.36233°
Mean anomaly
232.6599°
Eccentric anomaly
232.51104°
Mean motion
3.62934 °/min
Orbital period
99.19 mins
BSTAR
0.0011777
Loading maneuver chart data...
Computing Atmospheric mass density...
Loading historical data...
Loading historical data...
Loading historical data...
Loading historical data...
Loading historical data...
Loading historical data...
Loading historical data...

Documentation

Showing up to 5 results
|